Flag for Algeria Weather past 2 weeks in Constantine, Algeria

Now
86 °F

Clear.


Feels Like: 85 °F
Forecast: 74 / 103 °F
Wind: 5 mph from Southeast

Location: Constantine Airport

Current Time: Jul 29, 2015 at 10:04:47 PM

Latest Report: Jul 29, 2015 at 9:30 PM


Visibility: 10 mi

Pressure: 29.98 "Hg (28.16 "Hg at 557m altitude)

Humidity: 35%

Dew point: 55 °F

Location of ConstantineLocation

Historic Weather in Constantine — Graph

°F

Constantine temperature yesterday

Maximum temperature yesterday: 100 °F (at 2:00 PM)
Minimum temperature yesterday: 66 °F (at 5:30 AM)
Average temperature yesterday: 85 °F

Past Weeks' High & Low Weather Summary

 TemperatureHumidityPressure
High104 °F (Jul 29, 3:00 PM)78% (Jul 21, 5:00 AM)30.18 "Hg (Jul 21, 5:00 AM)
Low61 °F (Jul 15, 4:30 AM)13% (Jul 29, 3:00 PM)29.92 "Hg (Jul 24, 4:30 PM)
Average82 °F43%30.06 "Hg
* Reported Jul 14 9:00 PM — Jul 29 9:00 PM, Constantine, Weather by CustomWeather, © 2015

Note: Actual official high and low records may vary slightly from our data, if they occured in-between our weather recording intervals... More about our weather records

Advertising

Constantine weather history for previous 24 hours

 ConditionsComfort  
Time TempWeatherWind HumidityBarometerVisibility
9:00 PM
Wed, Jul 29
88 °FClear.5 mph33%29.98 "Hg10 mi
8:30 PM90 °FClear.5 mph29%29.98 "Hg10 mi
7:30 PM93 °FSunny.12 mph28%29.95 "Hg10 mi
7:00 PM97 °FSunny.12 mph25%29.95 "Hg10 mi
6:30 PM99 °FSunny.12 mph22%29.95 "Hg10 mi
6:00 PM100 °FSunny.9 mph21%29.95 "Hg10 mi
5:30 PM102 °FSunny.12 mph15%29.95 "Hg10 mi
5:00 PM104 °FSunny.10 mph15%29.95 "Hg10 mi
4:30 PM104 °FSunny.10 mph14%29.98 "Hg10 mi
4:00 PM104 °FSunny.5 mph14%29.98 "Hg10 mi
3:30 PM104 °FSunny.10 mph13%29.98 "Hg10 mi
3:00 PM104 °FSunny.3 mph13%29.98 "Hg10 mi
2:30 PM102 °FSunny.3 mph14%29.98 "Hg10 mi
2:00 PM102 °FSunny.7 mph15%29.98 "Hg10 mi
1:30 PM102 °FSunny.5 mph17%30.01 "Hg10 mi
1:00 PM100 °FSunny.6 mph18%30.01 "Hg10 mi
12:30 PM100 °FSunny.6 mph18%30.01 "Hg10 mi
12:00 PM99 °FSunny.6 mph22%30.04 "Hg10 mi
11:30 AM97 °FSunny.3 mph25%30.04 "Hg10 mi
11:00 AM95 °FSunny.2 mph23%30.04 "Hg10 mi
10:30 AM95 °FSunny.3 mph26%30.04 "Hg10 mi
10:00 AM91 °FSunny.3 mph32%30.04 "Hg10 mi
9:30 AM90 °FSunny.2 mph38%30.07 "Hg10 mi
9:00 AM84 °FSunny.No wind43%30.07 "Hg10 mi
8:30 AM82 °FSunny.No wind42%30.07 "Hg10 mi
8:00 AM81 °FSunny.2 mph42%30.07 "Hg10 mi
7:30 AM79 °FSunny.2 mph45%30.04 "Hg10 mi
7:00 AM77 °FSunny.No wind51%30.04 "Hg10 mi
6:00 AM70 °FSunny.No wind60%30.04 "Hg10 mi
5:30 AM70 °FClear.No wind60%30.01 "Hg10 mi
5:00 AM70 °FClear.1 mph60%30.01 "Hg10 mi
4:30 AM70 °FClear.1 mph64%30.01 "Hg10 mi
4:00 AM72 °FClear.No wind61%30.01 "Hg10 mi
3:30 AM72 °FClear.3 mph61%30.01 "Hg10 mi
3:00 AM73 °FClear.No wind57%30.01 "Hg10 mi
2:30 AM75 °FClear.No wind54%30.01 "Hg10 mi
1:30 AM75 °FClear.2 mph57%30.04 "Hg10 mi
1:00 AM75 °FClear.3 mph57%30.04 "Hg10 mi
12:30 AM75 °FClear.2 mph61%30.04 "Hg10 mi
11:00 PM
Tue, Jul 28
81 °FClear.6 mph54%30.04 "Hg10 mi
10:30 PM81 °FClear.7 mph54%30.04 "Hg10 mi
Weather by CustomWeather, © 2015

See weather overviewHow to use our weather pages